FW2389 Weather Reports


Display with metric or nautical units.
time (UTC)temp
F
wind
direction
speed
MPH
gust
MPH
rain 1hr
in
rain 24hr
in
rain mn
in
humidity
%
barometer
mb
20260506232057 56 276 14.0 22.0 0.00 0.04 0.04 93 1010.1
20260506231557 56 271 16.0 22.0 0.00 0.04 0.04 93 1010.1
20260506231057 56 267 15.0 24.0 0.00 0.04 0.04 93 1010.1
20260506230556 56 282 15.0 25.0 0.00 0.04 0.04 93 1010.0
20260506230056 56 258 18.0 26.0 0.00 0.04 0.04 93 1010.1
20260506225559 56 252 17.0 26.0 0.00 0.04 0.04 93 1010.0
20260506225055 56 250 20.0 26.0 0.00 0.04 0.04 92 1009.9
20260506224555 56 257 20.0 30.0 0.01 0.04 0.04 92 1009.7
20260506224054 56 250 20.0 30.0 0.01 0.04 0.04 92 1009.8
20260506223553 56 255 21.0 28.0 0.01 0.04 0.04 92 1009.8
20260506223105 57 252 20.0 31.0 0.02 0.04 0.04 92 1009.9
20260506222552 57 248 23.0 31.0 0.03 0.04 0.04 92 1009.9
20260506222056 57 238 24.0 30.0 0.03 0.04 0.04 92 1009.9
20260506221552 57 241 18.0 28.0 0.03 0.04 0.04 93 1009.9
20260506221053 57 252 15.0 23.0 0.03 0.04 0.04 93 1009.8
20260506220551 57 265 17.0 24.0 0.03 0.04 0.04 94 1009.9
20260506220051 57 247 17.0 24.0 0.03 0.04 0.04 94 1009.8
20260506215552 57 252 14.0 25.0 0.04 0.04 0.04 94 1009.8
20260506215051 57 257 18.0 25.0 0.04 0.04 0.04 94 1009.8
20260506214600 57 252 18.0 28.0 0.03 0.03 0.03 94 1009.8
20260506214054 57 257 19.0 25.0 0.03 0.03 0.03 94 1009.7
20260506213550 57 261 18.0 26.0 0.03 0.03 0.03 94 1009.8
20260506213050 57 235 16.0 26.0 0.02 0.02 0.02 94 1009.8
20260506212549 57 252 17.0 26.0 0.01 0.01 0.01 94 1009.8
20260506212051 57 270 17.0 29.0 0.01 0.01 0.01 93 1009.7
20260506211548 57 260 21.0 31.0 0.01 0.01 0.01 93 1009.9
20260506211049 57 255 22.0 33.0 0.01 0.01 0.01 92 1010.0
20260506210548 57 251 24.0 35.0 0.01 0.01 0.01 91 1010.1
20260506210047 57 232 19.0 30.0 0.00 0.00 0.00 91 1010.2
20260506205546 58 266 22.0 30.0 0.00 0.00 0.00 90 1010.2
20260506205046 58 281 20.0 33.0 0.00 0.00 0.00 89 1010.3
20260506204548 58 264 24.0 33.0 0.00 0.00 0.00 88 1010.3
20260506204045 59 268 23.0 31.0 0.00 0.00 0.00 88 1010.3
20260506203545 59 257 20.0 31.0 0.00 0.00 0.00 88 1010.4
20260506203047 59 257 21.0 27.0 0.00 0.00 0.00 88 1010.3
20260506202548 59 249 19.0 25.0 0.00 0.00 0.00 88 1010.2
20260506202045 59 260 19.0 26.0 0.00 0.00 0.00 87 1010.3
20260506201545 59 253 18.0 28.0 0.00 0.00 0.00 87 1010.2
20260506201048 60 250 23.0 29.0 0.00 0.00 0.00 86 1010.3
20260506200543 60 252 19.0 29.0 0.00 0.00 0.00 87 1010.3
20260506200112 59 249 19.0 29.0 0.00 0.00 0.00 87 1010.4
20260506195542 59 260 20.0 29.0 0.00 0.00 0.00 88 1010.5
20260506195041 59 252 17.0 25.0 0.00 0.00 0.00 87 1010.5
20260506194541 59 263 17.0 25.0 0.00 0.00 0.00 87 1010.7
20260506194041 59 278 18.0 26.0 0.00 0.00 0.00 87 1010.9
20260506193542 59 250 18.0 26.0 0.00 0.00 0.00 88 1010.9
20260506193042 59 272 17.0 29.0 0.00 0.00 0.00 88 1011.2
20260506192539 59 269 19.0 29.0 0.00 0.00 0.00 88 1011.1
20260506192039 59 257 15.0 27.0 0.00 0.00 0.00 88 1011.2
20260506191539 59 255 17.0 27.0 0.00 0.00 0.00 88 1011.3
20260506191038 59 257 17.0 25.0 0.00 0.00 0.00 89 1011.1
20260506190538 59 242 16.0 21.0 0.00 0.00 0.00 89 1011.2
20260506190036 59 250 13.0 23.0 0.00 0.00 0.00 89 1011.4
20260506185538 58 238 15.0 28.0 0.00 0.00 0.00 89 1011.3
20260506185039 58 257 20.0 35.0 0.00 0.00 0.00 88 1011.3
20260506184535 58 252 23.0 35.0 0.00 0.00 0.00 88 1011.2
20260506184036 58 247 24.0 35.0 0.00 0.00 0.00 88 1011.4
20260506183535 58 255 24.0 35.0 0.00 0.00 0.00 87 1011.6
20260506183035 58 264 26.0 32.0 0.00 0.00 0.00 87 1011.4
20260506182533 58 257 22.0 30.0 0.00 0.00 0.00 88 1011.8
20260506182033 58 260 20.0 32.0 0.00 0.00 0.00 88 1011.8
20260506181536 58 257 20.0 34.0 0.00 0.00 0.00 88 1011.9
20260506181032 58 257 22.0 34.0 0.00 0.00 0.00 87 1012.1
20260506180532 58 262 21.0 36.0 0.00 0.00 0.00 87 1012.1
20260506180038 59 255 22.0 41.0 0.00 0.00 0.00 86 1012.3
20260506175530 59 266 30.0 41.0 0.00 0.00 0.00 84 1012.3
20260506175028 59 259 25.0 37.0 0.00 0.00 0.00 84 1012.4
20260506174530 60 274 28.0 37.0 0.00 0.00 0.00 83 1012.5
20260506174028 60 245 27.0 37.0 0.00 0.00 0.00 83 1012.3
20260506173529 60 257 25.0 34.0 0.00 0.00 0.00 83 1012.5
20260506173028 60 248 23.0 32.0 0.00 0.00 0.00 82 1012.4
20260506172527 61 269 21.0 28.0 0.00 0.00 0.00 82 1012.5
20260506172030 61 250 18.0 28.0 0.00 0.00 0.00 82 1012.7
20260506171543 61 271 16.0 29.0 0.00 0.00 0.00 82 1012.7
20260506171026 61 254 23.0 33.0 0.00 0.00 0.00 82 1012.6
20260506170525 61 259 25.0 35.0 0.00 0.00 0.00 82 1012.8
20260506170025 61 245 23.0 37.0 0.00 0.00 0.00 82 1012.8
20260506165525 61 260 24.0 37.0 0.00 0.00 0.00 82 1012.7
20260506165025 61 245 20.0 35.0 0.00 0.00 0.00 82 1012.9
20260506164524 61 248 26.0 35.0 0.00 0.00 0.00 82 1012.9
20260506164024 61 259 27.0 39.0 0.00 0.00 0.00 81 1012.7
20260506163524 61 248 27.0 39.0 0.00 0.00 0.00 81 1012.7
20260506163028 61 248 23.0 38.0 0.00 0.00 0.00 82 1012.7
20260506162524 61 253 28.0 41.0 0.00 0.00 0.00 82 1012.8
20260506162023 61 252 32.0 41.0 0.00 0.00 0.00 81 1012.7
20260506161535 61 249 27.0 37.0 0.00 0.00 0.00 81 1013.0
20260506161022 61 271 27.0 37.0 0.00 0.00 0.00 81 1013.2
20260506160524 61 248 28.0 42.0 0.00 0.00 0.00 81 1013.3
20260506160020 61 250 30.0 42.0 0.00 0.00 0.00 82 1013.2
20260506155520 61 240 25.0 37.0 0.00 0.00 0.00 82 1013.4
20260506155020 61 262 26.0 37.0 0.00 0.00 0.00 82 1013.3
20260506154520 60 249 30.0 37.0 0.00 0.00 0.00 82 1013.3
20260506154020 60 256 28.0 37.0 0.00 0.00 0.00 82 1013.4
20260506153520 60 259 29.0 36.0 0.00 0.00 0.00 82 1013.4
20260506153020 60 248 27.0 39.0 0.00 0.00 0.00 82 1013.3
20260506152519 60 242 30.0 40.0 0.00 0.00 0.00 83 1013.2
20260506152019 60 251 30.0 40.0 0.00 0.00 0.00 82 1013.3
20260506151519 61 246 26.0 39.0 0.00 0.00 0.00 82 1013.6
20260506151018 61 265 30.0 39.0 0.00 0.00 0.00 81 1013.6
20260506150518 61 260 29.0 37.0 0.00 0.00 0.00 82 1013.4
20260506150023 61 236 28.0 40.0 0.00 0.00 0.00 82 1013.5
20260506145517 60 268 29.0 40.0 0.00 0.00 0.00 82 1013.5
20260506145017 60 245 29.0 37.0 0.00 0.00 0.00 83 1013.4
20260506144516 60 259 26.0 38.0 0.00 0.00 0.00 83 1013.6
20260506144016 59 256 27.0 38.0 0.00 0.00 0.00 84 1013.5
20260506143516 60 251 26.0 36.0 0.00 0.00 0.00 83 1013.7
20260506143016 60 252 25.0 37.0 0.00 0.00 0.00 83 1013.8
20260506142516 60 252 24.0 37.0 0.00 0.00 0.00 83 1013.9
20260506142015 60 255 26.0 37.0 0.00 0.00 0.00 83 1013.7
20260506141515 60 249 25.0 37.0 0.00 0.00 0.00 83 1013.7
20260506141015 60 252 25.0 41.0 0.00 0.00 0.00 83 1013.7
20260506140515 60 258 25.0 41.0 0.00 0.00 0.00 83 1013.5
20260506140016 60 262 28.0 41.0 0.00 0.00 0.00 83 1013.6
20260506135514 60 259 27.0 41.0 0.00 0.00 0.00 83 1013.6
20260506135024 60 265 25.0 37.0 0.00 0.00 0.00 83 1013.6
20260506134526 60 244 27.0 37.0 0.00 0.00 0.00 82 1013.4
20260506134013 60 240 23.0 37.0 0.00 0.00 0.00 82 1013.7
20260506133511 60 252 24.0 34.0 0.00 0.00 0.00 83 1013.5
20260506133012 59 237 25.0 34.0 0.00 0.00 0.00 84 1013.6
20260506132510 59 256 26.0 33.0 0.00 0.00 0.00 85 1013.4
20260506132010 59 266 26.0 33.0 0.00 0.00 0.00 84 1013.5
20260506131510 59 243 22.0 35.0 0.00 0.00 0.00 84 1013.6
20260506131010 59 248 21.0 38.0 0.00 0.00 0.00 84 1013.9
20260506130509 59 261 24.0 38.0 0.00 0.00 0.00 84 1013.9
20260506130010 59 252 23.0 33.0 0.00 0.00 0.00 84 1014.0
20260506125509 59 238 20.0 33.0 0.00 0.00 0.00 85 1014.0
20260506125008 59 255 25.0 35.0 0.00 0.00 0.00 84 1014.0
20260506124513 59 252 27.0 36.0 0.00 0.00 0.00 84 1013.9
20260506124008 59 247 25.0 36.0 0.00 0.00 0.00 85 1013.9
20260506123508 59 245 24.0 36.0 0.00 0.00 0.00 85 1013.9
20260506123007 59 258 28.0 36.0 0.00 0.00 0.00 85 1014.0
20260506122508 59 250 26.0 37.0 0.00 0.00 0.00 85 1013.8
20260506122007 59 255 27.0 37.0 0.00 0.00 0.00 85 1013.7
20260506121509 58 260 23.0 37.0 0.00 0.00 0.00 86 1013.9
20260506121006 58 244 23.0 35.0 0.00 0.00 0.00 86 1013.9
20260506120505 58 255 24.0 34.0 0.00 0.00 0.00 86 1013.9
20260506120010 58 250 26.0 34.0 0.00 0.00 0.00 86 1013.9
20260506115505 58 256 23.0 36.0 0.00 0.00 0.00 86 1013.9
20260506115004 58 250 27.0 36.0 0.00 0.00 0.00 87 1013.9
20260506114508 58 256 27.0 34.0 0.00 0.00 0.00 86 1013.9
20260506114005 58 246 22.0 30.0 0.00 0.00 0.00 87 1014.0
20260506113505 58 254 24.0 33.0 0.00 0.00 0.00 87 1013.8
20260506113006 58 252 22.0 33.0 0.00 0.00 0.00 87 1014.0
20260506112505 58 246 22.0 32.0 0.00 0.00 0.00 87 1014.0
20260506112004 58 245 25.0 32.0 0.00 0.00 0.00 87 1013.9
20260506111504 57 248 25.0 34.0 0.00 0.00 0.00 87 1013.9
20260506111004 57 247 28.0 35.0 0.00 0.00 0.00 88 1013.9
20260506110504 57 254 26.0 35.0 0.00 0.00 0.00 88 1014.0
20260506110009 57 267 23.0 34.0 0.00 0.00 0.00 88 1014.0
20260506105503 57 256 27.0 34.0 0.00 0.00 0.00 88 1013.9
20260506105003 57 261 26.0 33.0 0.00 0.00 0.00 88 1014.0
20260506104503 57 248 21.0 36.0 0.00 0.00 0.00 88 1014.0
20260506104002 57 244 26.0 36.0 0.00 0.00 0.00 88 1013.9
20260506103502 57 253 25.0 35.0 0.00 0.00 0.00 88 1013.8
20260506103007 57 263 27.0 36.0 0.00 0.00 0.00 88 1013.9
20260506102502 57 253 29.0 36.0 0.00 0.00 0.00 88 1013.8
20260506102101 57 247 27.0 35.0 0.00 0.00 0.00 88 1013.7
20260506101600 57 255 27.0 35.0 0.00 0.00 0.00 88 1013.6
20260506101059 57 248 25.0 35.0 0.00 0.00 0.00 88 1013.7
20260506100558 57 239 26.0 33.0 0.00 0.00 0.00 89 1013.5
20260506100104 57 249 26.0 32.0 0.00 0.00 0.00 89 1013.7
20260506095558 57 253 23.0 31.0 0.00 0.00 0.00 89 1013.6
20260506095058 57 241 23.0 35.0 0.00 0.00 0.00 89 1013.6
20260506094557 57 258 23.0 35.0 0.00 0.00 0.00 89 1013.6
20260506094057 57 259 26.0 34.0 0.00 0.00 0.00 89 1013.6
20260506093559 57 246 25.0 36.0 0.00 0.00 0.00 88 1013.7
20260506093058 57 240 28.0 36.0 0.00 0.00 0.00 89 1013.8
20260506092552 57 250 23.0 33.0 0.00 0.00 0.00 88 1013.7
20260506092053 57 264 24.0 35.0 0.00 0.00 0.00 89 1013.3
20260506091551 57 255 25.0 36.0 0.00 0.00 0.00 88 1013.4
20260506091051 57 242 28.0 36.0 0.00 0.00 0.00 88 1013.5
20260506090551 57 242 28.0 36.0 0.00 0.00 0.00 88 1013.5
20260506090050 57 248 25.0 34.0 0.00 0.00 0.00 89 1013.7
20260506085548 57 250 24.0 34.0 0.00 0.00 0.00 89 1013.9
20260506085048 57 249 24.0 34.0 0.00 0.00 0.00 89 1013.9
20260506084548 57 252 22.0 32.0 0.00 0.00 0.00 89 1013.9
20260506084049 57 253 24.0 34.0 0.00 0.00 0.00 89 1014.0
20260506083547 57 252 26.0 34.0 0.00 0.00 0.00 89 1014.0
20260506083107 57 241 20.0 32.0 0.00 0.00 0.00 89 1014.0
20260506082546 57 242 24.0 34.0 0.00 0.00 0.00 89 1014.0
20260506082048 57 253 26.0 34.0 0.00 0.00 0.00 88 1013.7
20260506081549 57 246 26.0 35.0 0.00 0.00 0.00 88 1013.7
20260506081045 57 258 25.0 37.0 0.00 0.00 0.00 88 1013.9
20260506080545 58 258 28.0 37.0 0.00 0.00 0.00 88 1013.9
20260506073043 58 258 27.0 38.0 0.00 0.00 0.00 86 1014.1
20260506072540 58 252 25.0 37.0 0.00 0.00 0.00 86 1014.1
20260506072040 58 252 26.0 36.0 0.00 0.00 0.00 86 1014.0
20260506071540 58 251 28.0 40.0 0.00 0.00 0.00 86 1014.0
20260506071039 58 276 27.0 40.0 0.00 0.00 0.00 86 1013.9
20260506070539 58 249 28.0 37.0 0.00 0.00 0.00 86 1014.0
20260506062035 58 242 28.0 36.0 0.00 0.00 0.00 86 1014.0
20260506061539 58 252 26.0 36.0 0.00 0.00 0.00 86 1014.0
20260506061035 58 248 29.0 39.0 0.00 0.00 0.00 86 1014.0
20260506060532 58 255 26.0 41.0 0.00 0.00 0.00 86 1014.0
20260506051027 58 245 27.0 39.0 0.00 0.00 0.00 85 1014.3
20260506050527 58 245 28.0 38.0 0.00 0.00 0.00 85 1014.3
20260506045024 58 253 28.0 39.0 0.00 0.00 0.00 85 1014.4
20260506044523 58 255 25.0 38.0 0.00 0.00 0.00 85 1014.4
20260506044027 59 248 30.0 38.0 0.00 0.00 0.00 85 1014.3
20260506043520 59 243 25.0 38.0 0.00 0.00 0.00 84 1014.5
20260506043020 59 250 28.0 40.0 0.00 0.00 0.00 84 1014.5
20260506042520 59 240 32.0 40.0 0.00 0.00 0.00 84 1014.4
20260506042019 59 247 28.0 38.0 0.00 0.00 0.00 84 1014.4
20260506041518 59 251 27.0 38.0 0.00 0.00 0.00 84 1014.3
20260506041017 59 248 27.0 42.0 0.00 0.00 0.00 84 1014.4
20260506040519 59 247 26.0 42.0 0.00 0.00 0.00 83 1014.4
20260506040018 59 250 29.0 38.0 0.00 0.00 0.00 83 1014.5
20260506035514 59 264 26.0 35.0 0.00 0.00 0.00 83 1014.5
20260506035014 59 249 26.0 39.0 0.00 0.00 0.00 82 1014.5
20260506034514 59 244 27.0 39.0 0.00 0.00 0.00 82 1014.4
20260506034013 59 255 28.0 37.0 0.00 0.00 0.00 81 1014.3
20260506033512 59 247 26.0 39.0 0.00 0.00 0.00 80 1014.5
20260506033015 60 260 29.0 39.0 0.00 0.00 0.00 80 1014.4
20260506032512 60 233 26.0 39.0 0.00 0.00 0.00 80 1014.3
20260506032012 59 250 24.0 41.0 0.00 0.00 0.00 80 1014.4
20260506031514 59 252 28.0 38.0 0.00 0.00 0.00 80 1014.3
20260506031013 59 252 27.0 38.0 0.00 0.00 0.00 80 1014.2
20260506030514 59 256 27.0 35.0 0.00 0.00 0.00 80 1014.3
20260506030014 59 249 23.0 35.0 0.00 0.00 0.00 80 1014.5
20260506025511 59 255 24.0 36.0 0.00 0.00 0.00 80 1014.3
20260506025011 59 269 27.0 36.0 0.00 0.00 0.00 80 1014.4
20260506024526 59 251 24.0 35.0 0.00 0.00 0.00 80 1014.3
20260506024011 59 245 26.0 35.0 0.00 0.00 0.00 80 1014.3
20260506023511 59 272 24.0 37.0 0.00 0.00 0.00 79 1014.3
20260506023011 59 248 26.0 37.0 0.00 0.00 0.00 79 1014.3
20260506022510 59 238 26.0 34.0 0.00 0.00 0.00 80 1014.2
20260506022014 59 256 24.0 34.0 0.00 0.00 0.00 79 1014.4
20260506021511 60 257 27.0 38.0 0.00 0.00 0.00 78 1014.3
20260506021010 60 257 26.0 38.0 0.00 0.00 0.00 78 1014.4
20260506020510 60 258 22.0 35.0 0.00 0.00 0.00 78 1014.2
20260506020009 60 248 25.0 36.0 0.00 0.00 0.00 77 1014.2
20260506015513 60 257 25.0 36.0 0.00 0.00 0.00 77 1014.1
20260506015011 60 261 25.0 38.0 0.00 0.00 0.00 77 1014.2
20260506014513 60 259 26.0 38.0 0.00 0.00 0.00 77 1014.1
20260506014007 60 253 24.0 37.0 0.00 0.00 0.00 77 1014.1
20260506013507 60 246 27.0 37.0 0.00 0.00 0.00 76 1014.0
20260506013007 60 257 24.0 37.0 0.00 0.00 0.00 76 1014.0
20260506012507 61 253 27.0 37.0 0.00 0.00 0.00 76 1013.9
20260506012007 61 260 26.0 44.0 0.00 0.00 0.00 76 1013.8
20260506011508 61 252 29.0 44.0 0.00 0.00 0.00 75 1013.9
20260506011005 60 257 26.0 37.0 0.00 0.00 0.00 76 1013.7
20260506010511 60 255 29.0 39.0 0.00 0.00 0.00 76 1013.6
20260506010005 60 255 27.0 40.0 0.00 0.00 0.00 76 1013.6
20260506005505 60 260 26.0 42.0 0.00 0.00 0.00 76 1013.7
20260506005004 60 250 30.0 42.0 0.00 0.00 0.00 75 1013.6
20260506004506 60 248 30.0 42.0 0.00 0.00 0.00 76 1013.5
20260506004005 60 253 28.0 41.0 0.00 0.00 0.00 76 1013.4
20260506003504 60 263 27.0 38.0 0.00 0.00 0.00 76 1013.3
20260506003005 60 258 28.0 38.0 0.00 0.00 0.00 76 1013.1
20260506002504 60 256 28.0 39.0 0.00 0.00 0.00 76 1012.9
20260506002005 60 246 27.0 40.0 0.00 0.00 0.00 76 1012.9
20260506001505 60 252 30.0 45.0 0.00 0.00 0.00 75 1012.6
20260506001004 60 254 27.0 40.0 0.00 0.00 0.00 76 1012.6
20260506000506 60 264 28.0 40.0 0.00 0.00 0.00 76 1012.5
20260506000003 60 257 28.0 41.0 0.00 0.00 0.00 76 1012.6
20260505235504 60 256 31.0 41.0 0.00 0.00 0.00 76 1012.3
20260505235003 60 258 29.0 41.0 0.00 0.00 0.00 77 1012.3
20260505234503 60 258 25.0 41.0 0.00 0.00 0.00 77 1012.5
20260505234005 59 265 28.0 42.0 0.00 0.00 0.00 77 1012.3
20260505233503 59 250 32.0 42.0 0.00 0.00 0.00 77 1012.3
20260505233002 59 253 28.0 39.0 0.00 0.00 0.00 78 1012.4
20260505232505 59 256 28.0 39.0 0.00 0.00 0.00 78 1012.4